EN

Hourly Weather Godziszow

Today, 18 May, Tuesday

Time Temperature Precipitation Wind Pressure Humidity
00:00 +12°C° 0 mm 1 mps 728 mmHg 84%
01:00 +12°C° 0 mm 1 mps 728 mmHg 86%
02:00 +12°C° 0 mm 1 mps 728 mmHg 86%
03:00 +12°C° 0 mm 2 mps 728 mmHg 86%
04:00 +12°C° 0 mm 2 mps 727 mmHg 86%
05:00 +13°C° 0 mm 2 mps 728 mmHg 84%
06:00 +13°C° 0 mm 3 mps 728 mmHg 83%
07:00 +13°C° 0 mm 3 mps 728 mmHg 81%
08:00 +14°C° 0.2 mm 4 mps 728 mmHg 79%
09:00 +14°C° 0.2 mm 5 mps 729 mmHg 78%
10:00 +15°C° 0.2 mm 5 mps 729 mmHg 76%
11:00 +14°C° 0.3 mm 6 mps 729 mmHg 78%
12:00 +14°C° 0.3 mm 7 mps 729 mmHg 80%
13:00 +12°C° 0.3 mm 7 mps 729 mmHg 82%
14:00 +12°C° 0.2 mm 7 mps 730 mmHg 81%
15:00 +12°C° 0.2 mm 7 mps 730 mmHg 80%
16:00 +12°C° 0.2 mm 7 mps 730 mmHg 79%
17:00 +13°C° 0.3 mm 6 mps 730 mmHg 82%
18:00 +11°C° 0.3 mm 6 mps 731 mmHg 85%
19:00 +10°C° 0.3 mm 6 mps 731 mmHg 88%
20:00 +10°C° 0.3 mm 6 mps 731 mmHg 90%
21:00 +9°C° 0.3 mm 6 mps 731 mmHg 92%
22:00 +9°C° 0.3 mm 6 mps 732 mmHg 93%
23:00 +9°C° 0.1 mm 6 mps 732 mmHg 93%

Tomorrow, 19 May, Wednesday

Time Temperature Precipitation Wind Pressure Humidity
00:00 +9°C° 0.1 mm 6 mps 732 mmHg 93%
01:00 +9°C° 0.1 mm 6 mps 732 mmHg 93%
02:00 +8°C° 0 mm 5 mps 732 mmHg 94%
03:00 +8°C° 0 mm 5 mps 732 mmHg 94%
04:00 +8°C° 0 mm 5 mps 733 mmHg 94%
05:00 +9°C° 0 mm 5 mps 733 mmHg 91%
06:00 +9°C° 0 mm 5 mps 733 mmHg 87%
07:00 +10°C° 0 mm 6 mps 733 mmHg 84%
08:00 +11°C° 0.1 mm 6 mps 734 mmHg 81%
09:00 +11°C° 0.1 mm 6 mps 734 mmHg 77%
10:00 +13°C° 0.1 mm 5 mps 734 mmHg 74%
11:00 +14°C° 0.2 mm 5 mps 734 mmHg 70%
12:00 +14°C° 0.2 mm 5 mps 734 mmHg 67%
13:00 +15°C° 0.2 mm 5 mps 734 mmHg 63%
14:00 +14°C° 0.1 mm 4 mps 734 mmHg 65%
15:00 +14°C° 0.1 mm 4 mps 734 mmHg 67%
16:00 +14°C° 0.1 mm 3 mps 734 mmHg 69%
17:00 +13°C° 0 mm 3 mps 734 mmHg 73%
18:00 +13°C° 0 mm 2 mps 734 mmHg 78%
19:00 +10°C° 0 mm 2 mps 734 mmHg 82%
20:00 +10°C° 0 mm 2 mps 735 mmHg 84%
21:00 +9°C° 0 mm 2 mps 735 mmHg 86%
22:00 +9°C° 0 mm 1 mps 735 mmHg 88%
23:00 +8°C° 0 mm 2 mps 735 mmHg 89%

Day after tomorrow, 20 May, Thursday

Time Temperature Precipitation Wind Pressure Humidity
00:00 +8°C° 0 mm 2 mps 735 mmHg 89%
01:00 +8°C° 0 mm 2 mps 735 mmHg 89%
02:00 +8°C° 0 mm 2 mps 735 mmHg 91%
03:00 +7°C° 0 mm 2 mps 735 mmHg 93%
04:00 +7°C° 0 mm 2 mps 735 mmHg 95%
05:00 +8°C° 0 mm 3 mps 735 mmHg 89%
06:00 +8°C° 0 mm 4 mps 736 mmHg 84%
07:00 +9°C° 0 mm 5 mps 736 mmHg 78%
08:00 +10°C° 0 mm 5 mps 736 mmHg 72%
09:00 +13°C° 0 mm 5 mps 736 mmHg 66%
10:00 +14°C° 0 mm 5 mps 737 mmHg 60%
11:00 +14°C° 0 mm 5 mps 737 mmHg 58%
12:00 +14°C° 0 mm 5 mps 737 mmHg 56%
13:00 +14°C° 0 mm 5 mps 737 mmHg 53%
14:00 +15°C° 0 mm 5 mps 737 mmHg 54%
15:00 +15°C° 0 mm 5 mps 737 mmHg 55%
16:00 +15°C° 0 mm 5 mps 737 mmHg 56%
17:00 +14°C° 0 mm 4 mps 737 mmHg 61%
18:00 +13°C° 0 mm 4 mps 737 mmHg 65%
19:00 +12°C° 0 mm 3 mps 737 mmHg 70%
20:00 +11°C° 0 mm 3 mps 738 mmHg 72%
21:00 +10°C° 0 mm 3 mps 738 mmHg 74%
22:00 +9°C° 0 mm 3 mps 738 mmHg 76%
23:00 +9°C° 0 mm 3 mps 738 mmHg 80%

21 May, Friday

Time Temperature Precipitation Wind Pressure Humidity
00:00 +8°C° 0 mm 3 mps 739 mmHg 84%
01:00 +7°C° 0 mm 3 mps 739 mmHg 89%
02:00 +7°C° 0 mm 2 mps 739 mmHg 91%
03:00 +6°C° 0 mm 2 mps 739 mmHg 92%
04:00 +6°C° 0 mm 2 mps 740 mmHg 94%
05:00 +8°C° 0 mm 2 mps 740 mmHg 87%
06:00 +10°C° 0 mm 2 mps 740 mmHg 80%
07:00 +12°C° 0 mm 2 mps 740 mmHg 73%
08:00 +14°C° 0.1 mm 2 mps 740 mmHg 69%
09:00 +15°C° 0.1 mm 2 mps 740 mmHg 64%
10:00 +16°C° 0.1 mm 2 mps 740 mmHg 59%
11:00 +17°C° 0.1 mm 2 mps 740 mmHg 55%
12:00 +19°C° 0.1 mm 1 mps 739 mmHg 51%
13:00 +19°C° 0.1 mm 1 mps 739 mmHg 47%
14:00 +19°C° 0 mm 1 mps 739 mmHg 49%
15:00 +19°C° 0 mm 1 mps 739 mmHg 51%
16:00 +18°C° 0 mm 1 mps 738 mmHg 53%
17:00 +16°C° 0 mm 2 mps 738 mmHg 60%
18:00 +15°C° 0 mm 2 mps 738 mmHg 67%
19:00 +13°C° 0 mm 2 mps 738 mmHg 74%
20:00 +11°C° 0 mm 3 mps 738 mmHg 77%
21:00 +10°C° 0 mm 3 mps 738 mmHg 81%
22:00 +10°C° 0 mm 3 mps 737 mmHg 84%
23:00 +10°C° 0 mm 4 mps 737 mmHg 81%

22 May, Saturday

Time Temperature Precipitation Wind Pressure Humidity
00:00 +10°C° 0 mm 4 mps 737 mmHg 77%
01:00 +10°C° 0 mm 4 mps 737 mmHg 74%
02:00 +10°C° 0 mm 4 mps 736 mmHg 73%
03:00 +10°C° 0 mm 4 mps 736 mmHg 72%
04:00 +10°C° 0 mm 4 mps 736 mmHg 72%
05:00 +10°C° 0 mm 5 mps 736 mmHg 70%
06:00 +11°C° 0 mm 6 mps 736 mmHg 69%
07:00 +14°C° 0 mm 6 mps 735 mmHg 68%
08:00 +15°C° 0 mm 7 mps 735 mmHg 63%
09:00 +17°C° 0 mm 8 mps 735 mmHg 58%
10:00 +18°C° 0 mm 8 mps 735 mmHg 52%
11:00 +18°C° 0 mm 8 mps 734 mmHg 53%
12:00 +18°C° 0 mm 8 mps 734 mmHg 54%
13:00 +20°C° 0 mm 7 mps 734 mmHg 55%
14:00 +18°C° 0 mm 8 mps 734 mmHg 57%
15:00 +18°C° 0 mm 8 mps 733 mmHg 58%
16:00 +18°C° 0 mm 8 mps 733 mmHg 60%
17:00 +17°C° 0.2 mm 8 mps 733 mmHg 65%
18:00 +16°C° 0.2 mm 7 mps 733 mmHg 69%
19:00 +15°C° 0.2 mm 7 mps 733 mmHg 74%
20:00 +14°C° 0.3 mm 6 mps 733 mmHg 80%
21:00 +13°C° 0.3 mm 5 mps 733 mmHg 87%
22:00 +12°C° 0.3 mm 4 mps 733 mmHg 93%
23:00 +11°C° 0.3 mm 4 mps 734 mmHg 93%

23 May, Sunday

Time Temperature Precipitation Wind Pressure Humidity
00:00 +11°C° 0.3 mm 4 mps 734 mmHg 92%
01:00 +10°C° 0.3 mm 4 mps 735 mmHg 92%
02:00 +10°C° 0.2 mm 4 mps 735 mmHg 93%
03:00 +10°C° 0.2 mm 3 mps 735 mmHg 93%
04:00 +9°C° 0.2 mm 3 mps 735 mmHg 94%
05:00 +10°C° 0.1 mm 3 mps 736 mmHg 90%
06:00 +11°C° 0.1 mm 3 mps 736 mmHg 86%
07:00 +11°C° 0.1 mm 3 mps 736 mmHg 82%
08:00 +13°C° 0 mm 4 mps 736 mmHg 73%
09:00 +14°C° 0 mm 4 mps 736 mmHg 64%
10:00 +17°C° 0 mm 4 mps 737 mmHg 55%
11:00 +16°C° 0.1 mm 5 mps 737 mmHg 54%
12:00 +16°C° 0.1 mm 5 mps 737 mmHg 53%
13:00 +17°C° 0.1 mm 5 mps 737 mmHg 51%
14:00 +17°C° 0.1 mm 5 mps 737 mmHg 53%
15:00 +16°C° 0.1 mm 5 mps 737 mmHg 55%
16:00 +16°C° 0.1 mm 5 mps 737 mmHg 57%
17:00 +15°C° 0.5 mm 4 mps 737 mmHg 66%
18:00 +13°C° 0.5 mm 3 mps 738 mmHg 74%
19:00 +12°C° 0.5 mm 3 mps 738 mmHg 83%
20:00 +11°C° 0.1 mm 3 mps 738 mmHg 86%
21:00 +10°C° 0.1 mm 3 mps 739 mmHg 90%
22:00 +9°C° 0.1 mm 3 mps 739 mmHg 93%
23:00 +9°C° 0 mm 3 mps 739 mmHg 94%
Show more